Louisville Bowman, KY

4:17 AM EDT on August 26, 2019 (GMT -0400)
Bowman

Weather History for KLOU - May, 2019

Change the Weather History Date:

Thursday, May 2, 2019

  Actual Average Record
Temperature  
Mean Temperature 69 °F 62 °F  
Max Temperature 78 °F 72 °F 94 °F (1959)
Min Temperature 60 °F 52 °F 32 °F (1963)
Degree Days  
Heating Degree Days 0 4  
Month to date heating degree days 0 9  
Since 1 July heating degree days 4054 4200  
Cooling Degree Days 4 2  
Month to date cooling degree days 12 3  
Year to date cooling degree days 29 37  
Growing Degree Days 20 (Base 50)    
Moisture  
Dew Point 62 °F    
Average Humidity 78    
Maximum Humidity 100    
Minimum Humidity 56    
Precipitation  
Precipitation 0.26 in 0.19 in 1.75 in (2011)
Month to date precipitation 0.35 0.38  
Year to date precipitation 23.76 15.18  
Sea Level Pressure  
Sea Level Pressure 30.09 in    
Wind  
Wind Speed 5 mph (SSE)    
Max Wind Speed 22 mph    
Max Gust Speed 30 mph    
Visibility 5 miles    
Events Fog , Rain    
T = Trace of Precipitation, MM = Missing Value Source: NWS Daily Summary

Daily Weather History Graph

Daily Weather History Graph

Search for Another Location

Airport or City:

Astronomy

May. 02, 2019 Rise Set
Actual Time 6:45 AM EDT 8:34 PM EDT
Civil Twilight 6:16 AM EDT 9:03 PM EDT
Nautical Twilight 5:42 AM EDT 9:37 PM EDT
Astronomical Twilight 5:05 AM EDT 10:15 PM EDT
Moon 5:54 AM EDT (5/2) 6:24 PM EDT (5/2)
Length of Visible Light 14h 46m
Length of Day
13h 49m
Waning Crescent, 5% of the Moon is Illuminated
May 2
Waning Crescent
May 4
New
May 11
First Quarter
May 18
Full
May 26
Last Quarter

Hourly Weather History & Observations

Time (EDT) Temp. Dew Point Humidity Pressure Visibility Wind Dir Wind Speed Gust Speed Precip Events Conditions
12:21 AM 64.9 °F 63.0 °F 93% 30.10 in 1.8 mi Calm Calm - N/A   Mostly Cloudy
12:36 AM 64.0 °F 63.0 °F 96% 30.10 in 0.5 mi Calm Calm - N/A Fog Fog
12:53 AM 64.0 °F 63.0 °F 96% 30.08 in 0.2 mi Calm Calm - N/A Fog Fog
1:07 AM 64.9 °F 64.0 °F 97% 30.09 in 2.0 mi Calm Calm - N/A   Clear
1:15 AM 64.0 °F 63.0 °F 96% 30.09 in 0.8 mi Calm Calm - N/A   Clear
1:22 AM 62.1 °F 62.1 °F 100% 30.09 in 0.2 mi Calm Calm - N/A Fog Fog
1:32 AM 64.9 °F 63.0 °F 93% 30.09 in 0.2 mi Calm Calm - N/A Fog Fog
1:42 AM 63.0 °F 61.0 °F 93% 30.09 in 0.2 mi Calm Calm - N/A Fog Fog
1:53 AM 63.0 °F 62.1 °F 97% 30.09 in 0.2 mi Calm Calm - N/A Fog Fog
2:53 AM 62.1 °F 61.0 °F 96% 30.09 in 0.2 mi Calm Calm - N/A Fog Fog
3:53 AM 61.0 °F 60.1 °F 97% 30.09 in 0.2 mi Calm Calm - N/A Fog Fog
4:37 AM 61.0 °F 59.0 °F 93% 30.10 in 0.2 mi Calm Calm - N/A Fog Fog
4:51 AM 62.6 °F 60.8 °F 94% 30.11 in 0.2 mi SSE 3.5 mph - N/A Fog Fog
4:53 AM 62.1 °F 61.0 °F 96% 30.10 in 0.2 mi SSE 3.5 mph - N/A Fog Fog
5:01 AM 62.1 °F 61.0 °F 96% 30.11 in 0.2 mi South 3.5 mph - N/A Fog Fog
5:23 AM 62.1 °F 61.0 °F 96% 30.11 in 0.5 mi Calm Calm - N/A Fog Fog
5:32 AM 62.1 °F 61.0 °F 96% 30.11 in 1.5 mi SE 3.5 mph - N/A   Overcast
5:35 AM 62.1 °F 61.0 °F 96% 30.11 in 3.0 mi SSE 4.6 mph - N/A   Overcast
5:53 AM 62.1 °F 61.0 °F 96% 30.10 in 5.0 mi SE 3.5 mph - N/A   Overcast
6:16 AM 62.1 °F 61.0 °F 96% 30.10 in 4.0 mi Calm Calm - N/A   Scattered Clouds
6:53 AM 61.0 °F 60.1 °F 97% 30.09 in 4.0 mi SSE 3.5 mph - N/A   Mostly Cloudy
7:45 AM 63.0 °F 62.1 °F 97% 30.13 in 8.0 mi South 4.6 mph - N/A   Mostly Cloudy
7:53 AM 63.0 °F 62.1 °F 97% 30.12 in 8.0 mi South 3.5 mph - N/A   Mostly Cloudy
8:08 AM 64.0 °F 62.1 °F 93% 30.12 in 9.0 mi SSE 4.6 mph - N/A   Scattered Clouds
8:53 AM 66.9 °F 64.0 °F 90% 30.10 in 10.0 mi SSE 4.6 mph - N/A   Clear
9:53 AM 70.0 °F 63.0 °F 78% 30.12 in 10.0 mi South 8.1 mph - N/A   Mostly Cloudy
10:53 AM 73.9 °F 66.0 °F 76% 30.10 in 10.0 mi SSW 5.8 mph - N/A   Partly Cloudy
11:53 AM 78.1 °F 66.9 °F 68% 30.11 in 10.0 mi SSW 13.8 mph 20.7 mph N/A   Mostly Cloudy
12:04 PM 78.1 °F 66.0 °F 66% 30.11 in 10.0 mi SSW 11.5 mph - N/A   Mostly Cloudy
12:23 PM 66.9 °F 61.0 °F 81% 30.13 in 3.0 mi West 18.4 mph 29.9 mph 0.05 in Rain Heavy Rain
12:25 PM 66.0 °F 61.0 °F 84% 30.13 in 1.8 mi West 16.1 mph 29.9 mph 0.11 in Rain Heavy Rain
12:40 PM 64.9 °F 62.1 °F 90% 30.13 in 3.0 mi NNW 5.8 mph - 0.26 in Rain Heavy Rain
12:53 PM 68.0 °F 64.0 °F 87% 30.13 in 10.0 mi WNW 6.9 mph - 0.26 in Rain Light Rain
1:28 PM 70.0 °F 63.0 °F 78% 30.14 in 10.0 mi SSE 4.6 mph - 0.00 in   Mostly Cloudy
1:53 PM 71.1 °F 63.0 °F 75% 30.09 in 10.0 mi North 6.9 mph - 0.00 in   Mostly Cloudy
2:53 PM 75.0 °F 63.0 °F 66% 30.09 in 10.0 mi Variable 6.9 mph - 0.00 in   Clear
3:53 PM 75.0 °F 60.1 °F 60% 30.07 in 10.0 mi WNW 6.9 mph - N/A   Partly Cloudy
4:53 PM 77.0 °F 60.1 °F 56% 30.04 in 10.0 mi Calm Calm - N/A   Clear
5:53 PM 73.9 °F 59.0 °F 59% 30.05 in 10.0 mi NW 4.6 mph - N/A   Overcast
6:53 PM 73.0 °F 61.0 °F 66% 30.04 in 10.0 mi ENE 5.8 mph - N/A   Partly Cloudy
7:53 PM 72.0 °F 64.0 °F 76% 30.03 in 10.0 mi SE 6.9 mph - N/A   Partly Cloudy
8:53 PM 71.1 °F 63.0 °F 75% 30.03 in 10.0 mi SE 8.1 mph - N/A   Clear
9:53 PM 68.0 °F 63.0 °F 84% 30.03 in 10.0 mi SE 5.8 mph - N/A   Partly Cloudy
10:53 PM 66.9 °F 63.0 °F 87% 30.02 in 10.0 mi East 3.5 mph - N/A   Clear
11:53 PM 66.0 °F 63.0 °F 90% 30.01 in 10.0 mi SE 3.5 mph - N/A   Mostly Cloudy